Date,TemperatureHighF,TemperatureAvgF,TemperatureLowF,DewpointHighF,DewpointAvgF,DewpointLowF,HumidityHigh,HumidityAvg,HumidityLow,PressureMaxIn,PressureMinIn,WindSpeedMaxMPH,WindSpeedAvgMPH,GustSpeedMaxMPH,PrecipitationSumIn
2012-6-2,77,66,58,50,48,45,64,53,39,29.97,28.87,0,0,0,0.00
2012-6-3,90,73,49,61,54,44,81,53,35,30.01,29.87,7,0,7,0.00
2012-6-4,87,71,60,65,57,53,79,64,42,29.88,29.74,2,0,2,0.00
2012-6-22,100,70,0,75,66,62,90,74,44,28.96,28.89,8,0,8,0.08
2012-6-23,102,75,0,80,68,63,92,79,44,29.04,28.93,3,0,3,0.20
2012-6-24,93,75,67,77,69,64,91,81,58,29.05,28.92,4,0,4,0.06
2012-6-25,99,76,0,79,69,63,91,80,50,28.98,28.75,1,0,1,0.00
2012-6-26,92,72,0,69,57,49,82,59,32,28.92,28.78,5,0,5,0.00
2012-6-27,94,70,55,63,54,49,84,60,31,29.04,28.92,2,0,2,0.00
2012-6-28,78,40,0,62,58,53,83,46,57,29.07,28.94,0,0,0,0.00
2012-6-29,103,80,0,74,66,57,77,63,40,28.94,28.84,4,0,4,0.00
2012-6-30,105,82,0,76,69,62,73,63,39,28.97,28.88,1,0,1,0.00
2012-7-1,105,82,68,76,70,63,90,69,36,29.09,28.89,4,0,4,0.14
2012-7-2,99,70,0,95,71,63,94,85,85,29.22,28.99,3,0,3,0.49
2012-7-3,107,81,0,79,70,63,92,71,39,29.07,28.96,2,0,2,0.43
2012-7-4,99,79,0,73,67,62,84,68,41,29.06,28.96,2,0,2,0.00
2012-7-5,103,75,0,76,68,59,88,74,38,29.02,28.93,4,0,4,0.24
2012-7-6,96,78,65,74,67,61,88,73,47,29.02,28.96,0,0,0,0.00
2012-7-7,101,80,70,81,70,66,85,71,45,29.07,28.98,0,0,0,0.00
2012-7-8,110,85,0,80,72,67,83,65,40,29.04,28.89,0,0,0,0.00
2012-7-9,98,79,71,83,70,65,86,75,52,28.99,28.90,4,0,4,0.10
2012-7-10,100,76,70,85,72,68,94,87,58,29.08,28.96,3,0,3,0.37
2012-7-11,91,71,67,77,68,65,93,88,60,29.16,29.03,2,0,2,1.57
2012-7-12,80,70,64,71,66,61,92,86,73,29.19,29.12,1,0,1,0.20
2012-7-13,92,72,67,79,68,64,92,88,63,29.22,29.12,3,0,3,1.18
2012-7-14,103,78,68,79,71,66,93,81,45,29.25,29.13,0,0,0,0.08
2012-7-15,103,79,69,78,70,66,91,77,43,29.25,29.11,1,0,1,0.00
2012-7-16,105,78,70,78,70,65,90,77,42,29.14,28.99,2,0,2,0.00
2012-7-17,106,79,66,77,69,63,90,73,41,29.04,28.94,1,0,1,0.00
2012-7-18,108,80,69,78,70,65,88,72,38,29.04,28.95,6,0,6,0.00
2012-7-19,100,78,68,78,69,64,90,77,48,29.09,28.98,0,0,0,0.69
2012-7-20,92,75,69,75,70,66,92,85,56,29.01,28.94,3,0,3,0.12
2012-7-21,95,77,69,77,70,66,92,81,51,29.11,28.99,3,0,3,0.00
2012-7-22,98,79,70,76,71,67,91,76,47,29.21,29.11,3,0,3,0.00
2012-7-23,98,79,-24,77,70,-28,87,76,50,29.24,29.09,1,0,1,0.00
2012-7-24,96,79,71,77,71,67,89,77,53,29.11,28.91,5,0,5,0.00
2012-7-25,100,78,69,79,71,65,89,78,51,29.04,28.93,6,0,6,0.16
2012-7-26,101,82,0,77,72,68,88,72,47,28.98,28.85,2,0,2,0.00
2012-7-27,101,81,73,77,70,66,84,71,45,28.99,28.89,7,0,7,0.00
2012-7-28,103,80,69,75,70,66,88,72,37,29.05,28.94,2,0,2,0.00
2012-7-29,99,80,69,72,66,62,83,66,40,29.07,28.96,2,0,2,0.00
2012-7-30,97,79,0,72,66,61,84,66,40,29.05,28.95,2,0,2,0.00
2012-7-31,78,72,66,71,66,61,87,82,71,29.04,28.94,0,0,0,0.10
2012-8-1,95,78,67,73,68,64,91,73,45,28.99,28.88,2,0,2,0.00
2012-8-2,96,80,68,75,69,64,87,71,49,28.98,28.88,112,1,112,0.00
2012-8-3,96,79,69,75,69,64,86,73,49,29.09,28.94,2,0,2,0.00
2012-8-4,96,79,72,75,69,66,85,72,49,29.23,29.08,3,0,3,0.00
2012-8-5,92,78,69,74,69,65,88,74,53,29.27,29.13,2,0,2,0.00
2012-8-6,95,76,0,75,69,66,87,75,48,29.18,29.04,4,0,4,0.16
2012-8-7,82,74,70,74,69,66,90,85,74,29.10,28.99,2,0,2,0.31
2012-8-8,79,75,70,74,70,66,91,82,68,29.06,28.97,0,0,0,0.02
2012-8-9,88,47,0,76,70,62,90,50,65,29.04,28.89,1,0,1,0.75
2012-8-10,84,76,67,73,69,64,93,82,70,28.91,28.83,1,0,1,0.00
2012-8-11,84,54,0,74,70,-26,92,63,70,29.00,28.88,0,0,0,0.39
2012-8-12,89,72,0,73,66,63,94,82,53,29.05,28.97,0,0,0,0.14
2012-8-13,92,74,0,71,65,60,89,74,48,29.09,28.98,2,0,2,0.00
2012-8-14,93,76,66,73,66,61,85,73,51,29.01,28.90,2,0,2,0.00
2012-8-15,93,76,68,74,68,61,88,77,49,29.03,28.92,1,0,1,0.00
2012-8-16,94,73,61,67,62,57,88,70,41,29.09,28.98,1,0,1,0.00
2012-8-17,90,73,63,74,65,59,87,78,56,29.04,28.88,4,0,4,0.04
2012-8-18,86,74,67,70,66,64,90,79,58,28.98,28.87,0,0,0,0.00
2012-8-19,82,70,67,71,66,63,91,86,66,28.93,28.86,0,0,0,0.71
2012-8-20,80,70,65,69,65,62,92,84,67,29.01,28.89,0,0,0,0.02
2012-8-21,86,72,64,70,64,60,90,78,56,29.12,28.99,0,0,0,0.41
2012-8-22,85,66,64,70,62,60,90,87,59,29.16,29.07,0,0,0,0.00
2012-8-23,87,75,64,70,65,60,87,73,56,29.19,29.11,0,0,0,0.00
2012-8-24,89,72,64,68,63,59,88,73,46,29.19,29.10,0,0,0,0.00
2012-8-25,89,71,60,66,60,56,87,69,45,29.20,29.11,0,0,0,0.00
2012-8-26,92,72,60,70,62,55,87,71,44,29.22,29.11,0,0,0,0.00
2012-8-27,93,75,65,70,64,60,86,71,43,29.20,29.05,0,0,0,0.00
2012-8-28,83,76,71,74,70,66,88,81,71,29.08,28.98,0,0,0,0.00
2012-8-29,85,75,72,74,71,68,90,86,70,29.05,28.98,0,0,0,0.20
2012-8-30,85,76,71,76,71,68,92,85,72,29.20,29.03,0,0,0,0.00
2012-8-31,95,79,72,76,71,68,92,78,53,29.26,29.14,2,0,2,0.00
2012-9-1,95,77,71,76,70,66,90,79,49,29.19,29.07,2,0,2,1.37
2012-9-2,86,74,69,77,70,66,93,87,70,29.11,28.98,3,0,3,0.02
2012-9-3,82,73,70,76,69,67,92,89,74,29.06,28.98,0,0,0,0.31
2012-9-4,81,73,70,76,70,68,93,90,82,29.03,28.94,0,0,0,0.20
2012-9-5,85,75,70,76,70,67,93,86,71,29.01,28.90,2,0,2,0.02
2012-9-6,89,76,70,76,70,66,91,83,65,28.99,28.91,0,0,0,0.00
2012-9-7,92,75,69,76,69,65,91,81,58,29.03,28.89,0,0,0,0.00
2012-9-8,90,72,66,76,67,62,91,85,56,28.91,28.75,0,0,0,0.59
2012-9-9,79,67,58,63,58,53,91,73,49,29.05,28.88,6,0,6,0.02
2012-9-10,85,67,55,62,56,51,88,71,45,29.17,29.04,0,0,0,0.00
2012-9-11,82,69,63,63,59,57,83,72,53,29.33,29.17,2,0,2,0.00
2012-9-12,81,67,58,64,58,54,87,74,54,29.38,29.27,1,0,1,0.00
2012-9-13,79,65,55,61,56,51,88,74,53,29.38,29.26,2,0,2,0.00
2012-9-14,82,68,58,63,59,54,85,73,52,29.30,29.18,4,0,4,0.00
2012-9-15,89,70,59,66,61,55,89,73,45,29.23,29.11,3,0,3,0.00
2012-9-16,74,68,66,68,64,61,90,85,79,29.17,29.07,3,0,3,0.26
2012-9-17,76,68,65,71,65,62,92,90,83,29.12,28.90,0,0,0,0.24
2012-9-18,74,70,65,70,67,62,93,91,85,28.90,28.73,6,0,6,1.43
2012-9-19,77,65,58,62,58,55,91,79,56,29.15,28.88,4,0,4,0.00
2012-9-20,76,64,56,63,57,52,90,78,62,29.20,29.07,1,0,1,0.00
2012-9-21,82,67,57,67,60,54,90,79,58,29.12,29.00,0,0,0,0.00
2012-9-22,87,71,62,68,62,58,90,76,51,29.04,28.93,0,0,0,0.00
2012-9-23,81,65,54,60,50,44,84,60,33,29.16,29.04,0,0,0,0.00
2012-9-24,76,60,50,49,43,40,72,55,38,29.26,29.15,0,0,0,0.00
2012-9-25,80,61,46,61,51,41,86,71,50,29.27,29.19,0,0,0,0.00
2012-9-26,86,67,56,65,57,51,86,71,48,29.25,29.17,0,0,0,0.00
2012-9-27,86,67,54,64,58,50,89,74,48,29.24,29.12,0,0,0,0.00
2012-9-28,87,69,58,67,60,55,89,76,49,29.15,29.01,0,0,0,0.00
2012-9-29,75,66,62,66,62,59,90,86,74,29.05,28.89,0,0,0,0.04
2012-9-30,76,64,59,59,57,55,91,78,54,28.96,28.87,0,0,0,0.00
2012-10-1,63,60,59,60,57,56,93,90,77,28.92,28.82,0,0,0,0.53
2012-10-2,76,70,62,71,66,60,94,88,76,29.00,28.78,6,0,6,0.41
2012-10-3,76,68,64,66,63,61,91,83,67,29.23,29.00,4,0,4,0.02
2012-10-4,82,68,62,64,61,56,91,78,52,29.27,29.19,3,0,3,0.00
2012-10-5,83,66,55,64,57,51,89,76,51,29.23,29.04,1,0,1,0.00
2012-10-6,81,66,57,64,59,53,89,78,52,29.05,28.91,6,0,6,0.14
2012-10-7,64,56,52,60,53,49,91,88,87,29.14,28.97,6,0,6,0.51
2012-10-8,52,49,47,49,44,42,87,82,77,29.22,29.13,4,0,4,0.00
2012-10-9,56,51,46,49,46,42,87,83,76,29.20,29.10,2,0,2,0.00
2012-10-10,75,57,46,58,48,43,89,75,54,29.16,29.05,7,0,7,0.00
2012-10-11,72,54,44,51,45,39,85,71,46,29.32,29.16,3,0,3,0.00
2012-10-12,74,58,45,57,50,41,88,75,53,29.32,29.19,3,0,3,0.00
2012-10-13,72,57,47,52,45,18,78,66,47,29.48,29.31,6,0,6,0.00
2012-10-14,67,57,46,58,51,42,87,80,69,29.33,29.06,0,0,0,0.00
2012-10-15,73,64,54,66,56,42,91,76,45,29.06,28.79,8,0,8,0.06
2012-10-16,73,57,44,50,44,39,83,64,41,29.01,28.89,5,0,5,0.00
2012-10-17,78,57,45,54,46,41,86,69,42,29.03,28.90,3,0,3,0.00
2012-10-18,74,60,49,60,52,43,87,76,60,28.93,28.80,7,0,7,0.02
2012-10-19,74,59,52,54,46,37,90,66,30,28.82,28.73,8,0,8,0.00
2012-10-20,71,55,44,49,41,36,77,60,43,28.99,28.79,2,0,2,0.00
2012-10-21,73,55,42,51,42,36,83,64,40,29.17,28.99,1,0,1,0.00
2012-10-22,81,57,42,57,46,38,86,68,40,29.26,29.15,0,0,0,0.00
2012-10-23,83,60,47,58,49,43,87,69,39,29.22,29.12,0,0,0,0.00
2012-10-24,85,61,46,58,49,42,88,67,37,29.22,29.10,0,0,0,0.00
2012-10-25,82,62,47,62,52,43,87,71,50,29.19,29.09,1,0,1,0.00
2012-10-26,80,65,56,62,55,52,87,73,50,29.12,28.97,5,0,5,0.00
2012-10-27,71,64,59,59,55,51,84,75,62,28.97,28.75,7,1,7,0.00
2012-10-28,72,56,44,52,46,35,82,70,47,28.79,28.66,13,1,13,0.02
2012-10-29,52,46,43,35,32,31,69,60,48,28.74,28.56,12,2,12,0.02
2012-10-30,50,45,42,33,30,28,61,57,50,28.69,28.48,8,1,8,0.00
2012-10-31,63,49,41,38,32,25,69,54,38,28.81,28.68,8,1,8,0.00
2012-11-1,65,49,39,39,28,21,62,45,31,28.92,28.80,8,0,8,0.00
2012-11-2,75,52,37,44,31,21,60,45,31,28.99,28.83,7,0,7,0.00
2012-11-3,76,53,37,44,35,28,73,52,30,29.12,28.98,6,0,6,0.00
2012-11-4,65,54,46,44,39,34,67,58,47,29.04,28.94,5,0,5,0.00
2012-11-5,65,50,40,42,34,28,70,56,37,29.10,29.01,6,0,6,0.00
2012-11-6,46,42,38,32,31,28,74,65,54,29.12,28.96,6,1,6,0.00
2012-11-7,56,46,38,40,35,30,77,67,54,28.99,28.86,2,1,2,0.00
2012-11-8,66,27,0,40,36,29,34,13,28,29.17,28.98,4,0,4,0.00
2012-11-9,74,28,0,49,31,28,57,21,29,29.28,29.16,4,0,4,0.00
2012-11-10,78,51,33,44,33,26,79,54,28,29.38,29.25,4,0,4,0.00
2012-11-11,76,46,38,51,35,30,75,65,41,29.47,29.36,2,0,2,0.00
2012-11-12,59,57,56,53,52,50,85,83,75,29.39,29.32,0,0,0,0.00
2012-11-13,62,51,40,57,43,28,89,73,45,29.39,29.18,6,1,6,0.14
2012-11-14,55,43,34,34,29,26,76,60,45,29.47,29.33,7,0,7,0.00
2012-11-15,52,41,34,37,32,28,85,70,53,29.34,29.24,4,0,4,0.35
2012-11-16,43,39,28,32,30,24,85,69,64,29.39,29.28,0,0,0,0.00
2012-11-17,60,46,36,34,29,25,71,54,35,29.47,29.38,7,1,7,0.00
2012-11-18,60,50,43,43,36,26,66,59,48,29.45,29.35,9,1,9,0.00
2012-11-19,62,53,44,47,42,38,79,68,59,29.36,29.20,8,1,8,0.00
2012-11-20,67,49,39,49,40,34,86,72,46,29.21,29.07,4,0,4,0.00
2012-11-21,68,48,34,47,35,28,88,64,35,29.19,29.09,5,0,5,0.06
2012-11-22,70,48,34,41,32,26,74,56,33,29.27,29.17,5,0,5,0.00
2012-11-23,70,48,30,46,34,24,81,60,39,29.18,28.93,10,0,10,0.00
2012-11-24,57,42,29,30,24,14,67,50,32,29.13,28.98,8,1,8,0.00
2012-11-25,59,37,24,29,20,14,71,52,31,29.19,29.04,5,0,5,0.00
2012-11-26,72,46,28,37,26,18,69,47,27,29.22,29.08,4,0,4,0.00
2012-11-27,58,50,45,44,35,27,70,56,46,29.22,29.09,3,0,3,0.00
2012-11-28,61,47,38,39,34,25,77,62,38,29.37,29.22,6,0,6,0.00
2012-11-29,62,41,26,42,30,20,78,64,45,29.47,29.35,6,0,6,0.00
2012-11-30,68,46,31,45,35,25,81,67,44,29.40,29.26,8,0,8,0.00
2012-12-1,69,50,38,52,42,34,88,74,50,29.40,29.30,4,0,4,0.00
2012-12-2,72,54,44,54,46,39,84,74,51,29.39,29.25,8,0,8,0.39
2012-12-3,77,57,46,54,47,42,89,72,44,29.32,29.23,6,0,6,0.39
2012-12-4,76,59,50,55,49,44,86,70,45,29.33,29.19,7,0,7,0.39
2012-12-5,66,58,52,57,50,41,82,75,64,29.21,29.13,5,0,5,0.39
2012-12-6,52,49,45,41,35,31,64,60,52,29.29,29.19,4,0,4,0.39
2012-12-7,57,50,46,44,39,35,84,68,60,29.21,29.03,4,0,4,0.00
2012-12-8,72,55,45,56,48,41,89,78,56,29.08,28.98,22,0,22,0.00
2012-12-9,69,58,54,59,53,49,90,83,71,29.12,29.00,6,0,6,0.02
2012-12-10,64,59,56,58,55,53,92,88,77,29.00,28.73,7,1,7,0.02
2012-12-11,59,51,42,56,43,32,91,76,63,29.16,28.75,6,0,6,0.00
2012-12-12,49,43,40,38,33,29,77,66,59,29.30,29.15,8,1,8,0.04
2012-12-13,54,43,31,31,27,19,64,53,39,29.40,29.25,8,1,8,0.00
2012-12-14,62,38,24,38,25,18,78,61,37,29.40,29.23,110,0,110,0.00
2012-12-15,36,2,0,26,26,26,66,3,66,29.26,29.09,0,0,0,0.00
2012-12-16,52,10,0,48,30,26,90,16,86,29.09,28.93,2,0,2,0.35
2012-12-17,55,52,50,52,50,48,92,91,89,28.94,28.70,4,0,4,0.53
2012-12-18,60,49,39,50,39,28,93,71,43,28.96,28.69,6,0,6,0.53
2012-12-19,70,48,34,45,34,26,74,61,37,29.11,28.95,6,0,6,0.53
2012-12-20,51,45,39,46,40,33,90,81,69,29.11,28.60,9,0,9,0.96
2012-12-21,45,38,33,37,26,19,84,62,46,28.93,28.64,14,2,14,0.98
2012-12-22,60,39,25,29,18,9,66,45,25,29.13,28.93,9,0,9,0.98
2012-12-23,58,40,25,31,21,9,64,47,31,29.16,29.04,4,0,4,0.98
2012-12-24,47,44,41,42,36,31,88,75,53,29.04,28.89,4,0,4,0.51
2012-12-25,51,46,43,47,42,40,90,87,82,29.11,28.95,6,0,6,0.53
2012-12-26,47,43,39,44,40,34,92,89,82,28.96,28.50,9,1,9,2.49
2012-12-27,43,37,0,36,32,26,86,72,72,29.08,28.75,2,0,2,2.49
2012-12-28,40,10,0,34,33,29,77,29,63,29.17,28.97,0,0,0,2.49
2012-12-29,53,40,32,43,32,23,89,75,51,29.06,28.75,12,1,12,2.69
2012-12-30,54,36,27,29,22,18,73,58,36,29.38,29.05,6,0,6,2.69
2012-12-31,45,38,26,30,26,19,75,62,55,29.38,29.11,6,2,6,2.69
2013-1-1,48,28,0,45,36,30,90,47,73,29.13,28.96,0,0,0,2.71